This is the latest recevied weather packets stored in our database for station/object WA2GUG. If no packets are shown the sender has not sent any weather packets the latest 10 day(s).
| Time | Temp. | Humidity | Pressure | Rain* | Wind** | Luminosity | Snow |
|---|---|---|---|---|---|---|---|
| 1777385649 | 22.78° C | 99% | 1013 hPa | - | - | - | - |
| 1777385349 | 22.22° C | 99% | 1013 hPa | - | - | - | - |
| 1777385049 | 21.67° C | 99% | 1013 hPa | - | - | - | - |
| 1777384749 | 21.67° C | 99% | 1013.1 hPa | - | - | - | - |
| 1777384448 | 21.67° C | 99% | 1013 hPa | - | - | - | - |
| 1777384149 | 21.67° C | 99% | 1013 hPa | - | - | - | - |
| 1777383849 | 21.11° C | 99% | 1013.1 hPa | - | - | - | - |
| 1777383549 | 21.11° C | 99% | 1013 hPa | - | - | - | - |
| 1777383249 | 21.11° C | 99% | 1013.2 hPa | - | - | - | - |
| 1777382949 | 20.56° C | 99% | 1014 hPa | - | - | - | - |
| 1777382649 | 20° C | 99% | 1014 hPa | - | - | - | - |
| 1777382349 | 20° C | 99% | 1014 hPa | - | - | - | - |
| 1777382049 | 20° C | 99% | 1013.2 hPa | - | - | - | - |
| 1777381749 | 19.44° C | 99% | 1014 hPa | - | - | - | - |
| 1777381449 | 18.89° C | 99% | 1014 hPa | - | - | - | - |
| 1777381149 | 18.33° C | 99% | 1014 hPa | - | - | - | - |
| 1777380849 | 17.78° C | 99% | 1013.2 hPa | - | - | - | - |
| 1777380549 | 17.78° C | 99% | 1014 hPa | - | - | - | - |
| 1777380249 | 17.22° C | 99% | 1013.2 hPa | - | - | - | - |
| 1777379949 | 16.11° C | 99% | 1014 hPa | - | - | - | - |
| 1777379649 | 15.56° C | 99% | 1013.2 hPa | - | - | - | - |
| 1777379348 | 13.89° C | 99% | 1014 hPa | - | - | - | - |
| 1777379049 | 13.33° C | 99% | 1014 hPa | - | - | - | - |
| 1777378748 | 12.78° C | 99% | 1014 hPa | - | - | - | - |
| 1777378448 | 12.78° C | 99% | 1013.2 hPa | - | - | - | - |
* Rain since midnight (hover to see other rain measurements)
** Current wind speed in m/s (hover to see current wind gust speed)